Preview of NWS' New Version of Forecast
This preview is not operational and should not be used for support decisions.

Regional Weather Roundup (RWR)

Issued by National Weather Service (NWS)

                            
000
ASUS43 KDTX 182201
RWRMI 
MICHIGAN HOURLY REGIONAL WEATHER ROUNDUP
NATIONAL WEATHER SERVICE DETROIT/PONTIAC MI
500 PM EST MON FEB 18 2019

NOTE: "FAIR" INDICATES FEW OR NO CLOUDS BELOW 12,000 FEET WITH NO
SIGNIFICANT WEATHER AND/OR OBSTRUCTION TO VISIBILITY.

MIZ047>049-052>055-059>063-066>070-074>076-081>083-182300-
SOUTHEAST LOWER MICHIGAN
  
CITY           SKY/WX    TMP DP  RH WIND       PRES   REMARKS
ADRIAN         CLOUDY    27  14  58 NW7       30.35R WCI  19          
ALMA           FAIR      24   3  41 CALM      30.37R                  
ANN ARBOR      FAIR      25  11  55 W9        30.34R WCI  15          
BAD AXE        FAIR      19   9  66 N7        30.35R WCI  10          
CARO           FAIR      22  10  60 N3        30.35S                  
DETROIT CITY   FLURRIES  27  15  61 N8        30.34R WCI  19          
DETROIT        PTSUNNY   26  11  52 N8        30.35R WCI  18          
FLINT          FAIR      23  10  57 NW3       30.36R                  
GROSSE ILE     PTSUNNY   28  15  60 N8        30.34R WCI  19          
HILLSDALE      PTSUNNY   25  13  58 N10       30.32R WCI  15          
HOWELL         FAIR      24  10  54 NW5       30.34R WCI  18          

CITY           SKY/WX    TMP DP  RH WIND       PRES   REMARKS
JACKSON        PTSUNNY   25  11  55 NW6       30.35R WCI  18          
LAMBERTVILLE   PTSUNNY   27  15  62 NW6       30.35R WCI  20          
LANSING        FAIR      24  10  55 N5        30.37R WCI  18          
LAPEER         CLOUDY    22  11  62 N8        30.35R WCI  12          
MASON          FAIR      24  11  55 NW6       30.36R WCI  17          
MONROE         FAIR      27  15  60 N8        30.34R WCI  19          
MT. CLEMENS    FAIR      24  12  61 N13         N/A  WCI  12          
PONTIAC        FAIR      24  10  55 NW8       30.32R WCI  15          
PORT HOPE        N/A     20   9  62 N5        30.34R WCI  13          
PORT HURON     CLOUDY    23  14  68 NE8       30.35R WCI  14          
TRI CITIES     FAIR      24   8  50 CALM      30.37R                  
MIDLAND        FAIR      26   7  44 N3        30.36R                  
TROY           FAIR      26  10  50 NW3       30.36R                  
SAGINAW HB     FAIR      23  10  58 E5        30.37R WCI  17          
$$
MIZ043>046-050>051-056>058-064>065-071>073-077>080-182300-
SOUTHWEST LOWER MICHIGAN
  
CITY           SKY/WX    TMP DP  RH WIND       PRES   REMARKS
BATTLE CREEK   FAIR      25  12  58 W8        30.36R WCI  16          
BENTON HARBOR  FAIR      27  13  55 NW7       30.41R WCI  19          
BIG RAPIDS     FAIR      26   4  38 N7        30.34R WCI  19          
COLDWATER      CLOUDY    27  14  59 NW6       30.35R WCI  20          
FREMONT        FAIR      25   8  47 NW6       30.37R WCI  18          
HOLLAND        FAIR      26   9  48 W9        30.40R WCI  17          
GRAND RAPIDS   FAIR      27   9  46 W7        30.36R WCI  19          
IONIA          FAIR      26   6  42 NW7       30.36R WCI  18          
KALAMAZOO      FAIR      27  11  51 N6        30.36R WCI  20          
LUDINGTON      FLURRIES  22  12  65 N8        30.41R WCI  13          
MARSHALL       FAIR      26  13  55 W3        30.35R                  
MOUNT PLEASANT FAIR      26   4  39 W7        30.36R WCI  19          
MUSKEGON       FAIR      27  11  51 NW12      30.39R WCI  17          
SOUTH HAVEN    FAIR      27  13  56 N8        30.40R WCI  18          
$$
MIZ016>042-182300-
NORTHERN LOWER MICHIGAN
  
CITY           SKY/WX    TMP DP  RH WIND       PRES   REMARKS
ALPENA         FAIR      15   4  61 N9        30.37R WCI   3          
BEAVER ISLAND  CLOUDY    17   6  62 NW8       30.41R WCI   6          
BELLAIRE       FAIR      18   4  55 W5        30.42R WCI  11          
CADILLAC       FAIR      18   3  53 N6        30.33R WCI   9          
CHARLEVOIX     FAIR      18   6  59 NW7       30.43R WCI   9          
FRANKFORT      PTSUNNY   19   8  61 N3        30.42R                  
GAYLORD        FAIR      14   1  56 W10       30.32R WCI   1          
GRAYLING       FAIR      18   6  61 W10       30.33R WCI   6          
HARBOR SPRINGS FAIR      17  -2  43 N6        30.39R WCI   8          
HOUGHTON LAKE  FAIR      20   6  55 W13       30.33R WCI   7          
MANISTEE       FLURRIES  21  10  62 N8        30.42R WCI  11          
OSCODA         FAIR      19   6  55 N6        30.35R WCI  11          
PELLSTON       FAIR      14   0  53 NW12      30.40R WCI   0          
ROGERS CITY    FAIR      15   3  59 NW12G17   30.38R WCI   2          
TRAVERSE CITY  PTSUNNY   18   7  62 N6        30.40R WCI  10          
$$
MIZ007>008-015-182300-
EASTERN UPPER MICHIGAN
  
CITY           SKY/WX    TMP DP  RH WIND       PRES   REMARKS
KINROSS        FAIR      10   3  73 NW14      30.38R WCI  -6          
MACKINAC ISLAN FAIR      16   1  51 N6        30.38R WCI   7          
NEWBERRY       CLOUDY    13   3  65 MISG      30.39R                  
S. S. MARIE    FAIR      11   3  70 NW9       30.38R WCI  -2          
MUNISING         N/A     15   6  67 NW13      30.43R WCI   1          
$$
MIZ004>006-011>014-085-182300-
CENTRAL UPPER MICHIGAN
  
CITY           SKY/WX    TMP DP  RH WIND       PRES   REMARKS
MANISTIQUE     CLOUDY    17   1  50 NW10      30.41R WCI   5          
ESCANABA       PTSUNNY   20   7  57 N7        30.43R WCI  11          
SAWYER-GWINN   MOSUNNY   12   5  73 NE5       30.37R WCI   4          
$$
MIZ001>003-009>011-084-182300-
WESTERN UPPER MICHIGAN
  
CITY           SKY/WX    TMP DP  RH WIND       PRES   REMARKS
IRON MOUNTAIN  FAIR      18   2  49 NW7       30.37R HAZE    WCI   9  
HOUGHTON       FAIR       9  -2  61 NW10      30.41R WCI  -5          
COPPER HARBOR    N/A      9  -1  64 N10       30.45S WCI  -5          
IRONWOOD       FAIR      15   0  51 NW5       30.42S WCI   8          
$$

ABBREVIATIONS USED IN REMARKS
   TC - TEMPERATURE IN CELSIUS
  WCI - WIND CHILL INDEX
   HX - HEAT INDEX
  VSB - VISIBILITY